| time (UTC) | temp F | wind direction | speed MPH | gust MPH | rain 1hr in | rain 24hr in | rain mn in | humidity % | barometer mb |
| 20260506093017 | 46 | 319 | 0.0 | 1.0 | 0.00 | 0.26 | 0.02 | 92 | 1013.8 |
| 20260506091508 | 46 | 352 | 0.0 | 2.0 | 0.00 | 0.29 | 0.02 | 93 | 1013.8 |
| 20260506090004 | 46 | 26 | 0.0 | 2.0 | 0.00 | 0.35 | 0.02 | 93 | 1013.5 |
| 20260506084504 | 46 | 345 | 0.0 | 2.0 | 0.00 | 0.38 | 0.02 | 93 | 1013.4 |
| 20260506083008 | 46 | 36 | 0.0 | 2.0 | 0.00 | 0.41 | 0.02 | 93 | 1013.0 |
| 20260506081512 | 46 | 317 | 0.0 | 2.0 | 0.01 | 0.44 | 0.02 | 93 | 1013.3 |
| 20260506073004 | 46 | 5 | 0.0 | 3.0 | 0.02 | 0.78 | 0.02 | 92 | 1012.7 |
| 20260506071505 | 46 | 61 | 1.0 | 4.0 | 0.01 | 0.78 | 0.01 | 92 | 1012.4 |
| 20260506061508 | 46 | 34 | 0.0 | 3.0 | 0.00 | 0.79 | 0.00 | 94 | 1013.2 |
| 20260506044518 | 47 | 38 | 0.0 | 2.0 | 0.00 | 0.79 | 0.79 | 94 | 1012.8 |
| 20260506043003 | 47 | 320 | 0.0 | 4.0 | 0.00 | 0.79 | 0.79 | 94 | 1012.5 |
| 20260506041504 | 47 | 45 | 1.0 | 5.0 | 0.00 | 0.79 | 0.79 | 95 | 1011.8 |
| 20260506040003 | 47 | 50 | 1.0 | 4.0 | 0.00 | 0.79 | 0.79 | 95 | 1012.0 |
| 20260506034504 | 47 | 351 | 1.0 | 5.0 | 0.00 | 0.79 | 0.79 | 95 | 1011.8 |
| 20260506033001 | 47 | 78 | 1.0 | 3.0 | 0.00 | 0.79 | 0.79 | 95 | 1011.7 |
| 20260506031504 | 47 | 333 | 0.0 | 3.0 | 0.00 | 0.79 | 0.79 | 95 | 1011.5 |
| 20260506030004 | 47 | 316 | 1.0 | 3.0 | 0.00 | 0.79 | 0.79 | 94 | 1011.5 |
| 20260506024510 | 47 | 5 | 0.0 | 3.0 | 0.04 | 0.79 | 0.79 | 94 | 1010.9 |
| 20260506023006 | 47 | 32 | 0.0 | 3.0 | 0.04 | 0.79 | 0.79 | 94 | 1010.8 |
| 20260506021506 | 47 | 296 | 0.0 | 4.0 | 0.04 | 0.79 | 0.79 | 94 | 1010.9 |
| 20260506020004 | 48 | 330 | 0.0 | 3.0 | 0.04 | 0.79 | 0.79 | 93 | 1011.0 |
| 20260506014504 | 48 | 174 | 1.0 | 9.0 | 0.00 | 0.75 | 0.75 | 93 | 1010.4 |
| 20260506013004 | 48 | 20 | 1.0 | 4.0 | 0.00 | 0.75 | 0.75 | 93 | 1009.7 |
| 20260506011507 | 48 | 69 | 1.0 | 9.0 | 0.00 | 0.75 | 0.75 | 92 | 1010.0 |
| 20260506010004 | 49 | 271 | 1.0 | 6.0 | 0.00 | 0.75 | 0.75 | 92 | 1010.0 |
| 20260506004505 | 49 | 46 | 1.0 | 5.0 | 0.00 | 0.75 | 0.75 | 92 | 1009.7 |
| 20260506003004 | 49 | 335 | 1.0 | 5.0 | 0.00 | 0.75 | 0.75 | 92 | 1009.3 |
| 20260506001505 | 49 | 248 | 1.0 | 6.0 | 0.00 | 0.75 | 0.75 | 92 | 1009.4 |
| 20260506000008 | 49 | 62 | 1.0 | 9.0 | 0.00 | 0.75 | 0.75 | 92 | 1009.1 |
| 20260505234508 | 49 | 62 | 1.0 | 7.0 | 0.00 | 0.75 | 0.75 | 92 | 1009.0 |
| 20260505233009 | 50 | 303 | 1.0 | 9.0 | 0.00 | 0.75 | 0.75 | 93 | 1008.9 |
| 20260505231512 | 50 | 123 | 0.0 | 6.0 | 0.00 | 0.75 | 0.75 | 93 | 1008.6 |
| 20260505230015 | 51 | 331 | 1.0 | 8.0 | 0.00 | 0.75 | 0.75 | 93 | 1008.2 |
| 20260505224515 | 52 | 57 | 1.0 | 8.0 | 0.00 | 0.75 | 0.75 | 93 | 1008.1 |
| 20260505223008 | 52 | 347 | 0.0 | 8.0 | 0.00 | 0.75 | 0.75 | 93 | 1007.7 |
| 20260505221514 | 52 | 305 | 2.0 | 9.0 | 0.00 | 0.75 | 0.75 | 93 | 1007.6 |
| 20260505220017 | 53 | 277 | 2.0 | 8.0 | 0.00 | 0.75 | 0.75 | 92 | 1008.3 |
| 20260505214512 | 53 | 49 | 4.0 | 11.0 | 0.00 | 0.75 | 0.75 | 92 | 1007.7 |
| 20260505213015 | 53 | 38 | 1.0 | 6.0 | 0.00 | 0.75 | 0.75 | 93 | 1007.5 |
| 20260505211513 | 54 | 37 | 1.0 | 7.0 | 0.01 | 0.75 | 0.75 | 93 | 1007.6 |
| 20260505210018 | 54 | 130 | 1.0 | 9.0 | 0.01 | 0.75 | 0.75 | 93 | 1007.6 |
| 20260505204520 | 55 | 352 | 1.0 | 5.0 | 0.01 | 0.75 | 0.75 | 93 | 1007.6 |
| 20260505203024 | 55 | 329 | 1.0 | 6.0 | 0.01 | 0.75 | 0.75 | 93 | 1007.5 |
| 20260505201517 | 55 | 58 | 1.0 | 4.0 | 0.01 | 0.74 | 0.74 | 93 | 1008.1 |
| 20260505200013 | 56 | 138 | 1.0 | 6.0 | 0.02 | 0.74 | 0.74 | 94 | 1007.1 |
| 20260505194520 | 56 | 191 | 2.0 | 8.0 | 0.04 | 0.74 | 0.74 | 93 | 1007.2 |
| 20260505193030 | 56 | 28 | 1.0 | 6.0 | 0.04 | 0.74 | 0.74 | 93 | 1007.3 |
| 20260505191524 | 57 | 27 | 2.0 | 9.0 | 0.04 | 0.73 | 0.73 | 93 | 1007.4 |
| 20260505190012 | 57 | 360 | 2.0 | 7.0 | 0.03 | 0.72 | 0.72 | 93 | 1007.1 |
| 20260505184517 | 58 | 346 | 2.0 | 10.0 | 0.01 | 0.70 | 0.70 | 93 | 1007.1 |
| 20260505183019 | 59 | 349 | 2.0 | 8.0 | 0.01 | 0.70 | 0.70 | 93 | 1006.6 |
| 20260505181525 | 60 | 9 | 3.0 | 10.0 | 0.00 | 0.69 | 0.69 | 92 | 1006.8 |
| 20260505180028 | 62 | 138 | 3.0 | 9.0 | 0.00 | 0.69 | 0.69 | 91 | 1006.5 |
| 20260505174522 | 63 | 360 | 0.0 | 2.0 | 0.00 | 0.69 | 0.69 | 93 | 1006.2 |
| 20260505173021 | 63 | 360 | 0.0 | 2.0 | 0.00 | 0.69 | 0.69 | 93 | 1006.1 |
| 20260505171522 | 63 | 47 | 0.0 | 3.0 | 0.00 | 0.69 | 0.69 | 92 | 1006.4 |
| 20260505170020 | 63 | 352 | 0.0 | 2.0 | 0.00 | 0.69 | 0.69 | 93 | 1006.6 |
| 20260505164514 | 63 | 313 | 0.0 | 7.0 | 0.00 | 0.69 | 0.69 | 93 | 1006.2 |
| 20260505163021 | 63 | 319 | 0.0 | 2.0 | 0.00 | 0.69 | 0.69 | 93 | 1006.1 |
| 20260505161518 | 63 | 282 | 0.0 | 2.0 | 0.00 | 0.69 | 0.69 | 93 | 1006.1 |
| 20260505153016 | 62 | 324 | 0.0 | 4.0 | 0.00 | 0.69 | 0.69 | 95 | 1005.8 |
| 20260505151519 | 62 | 64 | 0.0 | 2.0 | 0.00 | 0.69 | 0.69 | 95 | 1006.0 |
| 20260505124528 | 60 | 57 | 1.0 | 2.0 | 0.00 | 0.68 | 0.68 | 95 | 1006.0 |
| 20260505123026 | 60 | 193 | 0.0 | 1.0 | 0.00 | 0.68 | 0.68 | 95 | 1005.7 |
| 20260505121517 | 60 | 193 | 0.0 | 1.0 | 0.00 | 0.68 | 0.68 | 95 | 1005.4 |
| 20260505120021 | 60 | 193 | 0.0 | 1.0 | 0.00 | 0.68 | 0.68 | 95 | 1005.4 |
| 20260505114519 | 60 | 254 | 0.0 | 1.0 | 0.00 | 0.68 | 0.68 | 95 | 1005.2 |
| 20260505113020 | 60 | 254 | 0.0 | 1.0 | 0.01 | 0.68 | 0.68 | 95 | 1005.0 |
| 20260505111511 | 60 | 254 | 0.0 | 1.0 | 0.03 | 0.68 | 0.68 | 95 | 1005.3 |
| 20260505101518 | 60 | 199 | 0.0 | 3.0 | 0.13 | 0.65 | 0.65 | 95 | 1006.5 |
| 20260505100021 | 60 | 304 | 0.0 | 2.0 | 0.15 | 0.61 | 0.61 | 95 | 1006.8 |
| 20260505094506 | 60 | 77 | 0.0 | 2.0 | 0.16 | 0.58 | 0.58 | 95 | 1006.5 |
| 20260505093025 | 60 | 102 | 0.0 | 2.0 | 0.15 | 0.55 | 0.55 | 95 | 1006.9 |